Location: Autingues
(50.8400°N, 1.9737°E)
Time: 20:38:45
(UTC+00:00)

Aureole 1 Rocket - Pass Details

Date: 15 May 2026
Orbit: 372 x 1149 km, 73.9° (Epoch: 7 June)

Event Time Altitude Azimuth Distance (km) Brightness Sun altitude
Rises 22:13:50 0° 334° (NNW) 3,287 8.6 -17.1°
Reaches altitude 10° 22:16:03 10° 334° (NNW) 2,463 7.4 -17.2°
Maximum altitude 22:21:50 82° 248° (WSW) 981 4.0 -17.6°
Enters shadow 22:25:40 28° 163° (SSE) 1,843 4.8 -17.8°
